Time,TemperatureF,DewpointF,PressureIn,WindDirection,WindDirectionDegrees,WindSpeedMPH,WindSpeedGustMPH,Humidity,HourlyPrecipIn,Conditions,Clouds,dailyrainin,SolarRadiationWatts/m^2,SoftwareType,DateUTC
2015-05-22 00:03:00,63.9,48.8,29.13,North,32767,0.0,0.0,58,0.00,,,0.00,0,Wunderground v.1.15,2015-05-22 04:03:00,
2015-05-22 00:08:00,63.8,48.7,29.13,North,32767,0.0,0.0,58,0.00,,,0.00,0,Wunderground v.1.15,2015-05-22 04:08:00,
2015-05-22 00:13:00,63.8,48.7,29.14,North,32767,0.0,0.0,58,0.00,,,0.00,0,Wunderground v.1.15,2015-05-22 04:13:00,
2015-05-22 00:18:00,63.7,48.6,29.13,North,32767,0.0,0.0,58,0.00,,,0.00,0,Wunderground v.1.15,2015-05-22 04:18:00,
2015-05-22 00:23:00,63.5,48.9,29.15,North,32767,0.0,0.0,59,0.00,,,0.00,0,Wunderground v.1.15,2015-05-22 04:23:00,
2015-05-22 00:29:00,63.3,48.7,29.15,North,32767,0.0,0.0,59,0.00,,,0.00,0,Wunderground v.1.15,2015-05-22 04:29:00,
2015-05-22 00:35:00,63.2,49.1,29.15,North,32767,0.0,0.0,60,0.00,,,0.00,0,Wunderground v.1.15,2015-05-22 04:35:00,
2015-05-22 00:40:00,63.2,49.1,29.15,North,32767,0.0,0.0,60,0.00,,,0.00,0,Wunderground v.1.15,2015-05-22 04:40:00,
2015-05-22 00:45:00,63.2,49.1,29.16,North,32767,0.0,0.0,60,0.00,,,0.00,0,Wunderground v.1.15,2015-05-22 04:45:00,
2015-05-22 00:50:00,63.2,49.1,29.16,North,32767,0.0,0.0,60,0.00,,,0.00,0,Wunderground v.1.15,2015-05-22 04:50:00,
2015-05-22 00:55:00,63.2,48.6,29.16,North,32767,0.0,0.0,59,0.00,,,0.00,0,Wunderground v.1.15,2015-05-22 04:55:00,
2015-05-22 01:00:00,63.1,48.5,29.15,North,32767,0.0,0.0,59,0.00,,,0.00,0,Wunderground v.1.15,2015-05-22 05:00:00,
2015-05-22 01:06:00,63.1,48.5,29.16,North,32767,0.0,0.0,59,0.00,,,0.00,0,Wunderground v.1.15,2015-05-22 05:06:00,
2015-05-22 01:11:00,62.7,48.6,29.16,North,32767,0.0,0.0,60,0.00,,,0.00,0,Wunderground v.1.15,2015-05-22 05:11:00,
2015-05-22 01:16:00,62.3,48.2,29.16,North,32767,0.0,0.0,60,0.00,,,0.00,0,Wunderground v.1.15,2015-05-22 05:16:00,
2015-05-22 01:21:00,62.1,47.6,29.16,North,32767,0.0,0.0,59,0.00,,,0.00,0,Wunderground v.1.15,2015-05-22 05:21:00,
2015-05-22 01:26:00,61.7,47.2,29.17,North,32767,0.0,0.0,59,0.00,,,0.00,0,Wunderground v.1.15,2015-05-22 05:26:00,
2015-05-22 01:32:00,61.6,47.6,29.16,North,32767,0.0,0.0,60,0.00,,,0.00,0,Wunderground v.1.15,2015-05-22 05:32:00,
2015-05-22 01:39:00,61.3,47.3,29.16,North,32767,0.0,0.0,60,0.00,,,0.00,0,Wunderground v.1.15,2015-05-22 05:39:00,
2015-05-22 01:44:00,61.1,47.5,29.16,North,32767,0.0,0.0,61,0.00,,,0.00,0,Wunderground v.1.15,2015-05-22 05:44:00,
2015-05-22 01:49:00,60.9,47.4,29.17,North,32767,0.0,0.0,61,0.00,,,0.00,0,Wunderground v.1.15,2015-05-22 05:49:00,
2015-05-22 01:54:00,60.7,47.2,29.17,North,32767,0.0,0.0,61,0.00,,,0.00,0,Wunderground v.1.15,2015-05-22 05:54:00,
2015-05-22 01:59:00,60.4,47.3,29.16,North,32767,0.0,0.0,62,0.00,,,0.00,0,Wunderground v.1.15,2015-05-22 05:59:00,
2015-05-22 02:04:00,60.2,47.1,29.17,North,32767,0.0,0.0,62,0.00,,,0.00,0,Wunderground v.1.15,2015-05-22 06:04:00,
2015-05-22 02:10:00,60.0,46.9,29.17,North,32767,0.0,0.0,62,0.00,,,0.00,0,Wunderground v.1.15,2015-05-22 06:10:00,
2015-05-22 02:15:00,59.8,47.2,29.17,North,32767,0.0,0.0,63,0.00,,,0.00,0,Wunderground v.1.15,2015-05-22 06:15:00,
2015-05-22 02:20:00,59.6,47.0,29.17,North,32767,0.0,0.0,63,0.00,,,0.00,0,Wunderground v.1.15,2015-05-22 06:20:00,
2015-05-22 02:25:00,59.5,47.3,29.16,North,32767,0.0,0.0,64,0.00,,,0.00,0,Wunderground v.1.15,2015-05-22 06:25:00,
2015-05-22 02:30:00,59.3,47.1,29.17,North,32767,0.0,0.0,64,0.00,,,0.00,0,Wunderground v.1.15,2015-05-22 06:30:00,
2015-05-22 02:36:00,59.0,46.8,29.17,North,32767,0.0,0.0,64,0.00,,,0.00,0,Wunderground v.1.15,2015-05-22 06:36:00,
2015-05-22 02:42:00,58.9,46.7,29.16,North,32767,0.0,0.0,64,0.00,,,0.00,0,Wunderground v.1.15,2015-05-22 06:42:00,
2015-05-22 02:47:00,58.8,47.1,29.17,North,32767,0.0,0.0,65,0.00,,,0.00,0,Wunderground v.1.15,2015-05-22 06:47:00,
2015-05-22 02:53:00,58.5,47.2,29.17,North,32767,0.0,0.0,66,0.00,,,0.00,0,Wunderground v.1.15,2015-05-22 06:53:00,
2015-05-22 02:58:00,58.3,47.0,29.17,North,32767,0.0,0.0,66,0.00,,,0.00,0,Wunderground v.1.15,2015-05-22 06:58:00,
2015-05-22 03:03:00,58.1,46.8,29.17,North,32767,0.0,0.0,66,0.00,,,0.00,0,Wunderground v.1.15,2015-05-22 07:03:00,
2015-05-22 03:09:00,58.0,47.1,29.17,North,32767,0.0,0.0,67,0.00,,,0.00,0,Wunderground v.1.15,2015-05-22 07:09:00,
2015-05-22 03:14:00,57.9,47.0,29.17,North,32767,0.0,0.0,67,0.00,,,0.00,0,Wunderground v.1.15,2015-05-22 07:14:00,
2015-05-22 03:20:00,57.9,47.0,29.18,North,32767,0.0,0.0,67,0.00,,,0.00,0,Wunderground v.1.15,2015-05-22 07:20:00,
2015-05-22 03:25:00,57.9,47.0,29.18,North,32767,0.0,0.0,67,0.00,,,0.00,0,Wunderground v.1.15,2015-05-22 07:25:00,
2015-05-22 03:30:00,57.9,47.0,29.17,North,32767,0.0,0.0,67,0.00,,,0.00,0,Wunderground v.1.15,2015-05-22 07:30:00,
2015-05-22 03:35:00,57.7,46.8,29.17,North,32767,0.0,0.0,67,0.00,,,0.00,0,Wunderground v.1.15,2015-05-22 07:35:00,
2015-05-22 03:40:00,57.6,47.1,29.19,North,32767,0.0,0.0,68,0.00,,,0.00,0,Wunderground v.1.15,2015-05-22 07:40:00,
2015-05-22 03:51:00,57.3,46.8,29.19,North,32767,0.0,0.0,68,0.00,,,0.00,0,Wunderground v.1.15,2015-05-22 07:51:00,
2015-05-22 03:56:00,57.1,46.6,29.18,North,32767,0.0,0.0,68,0.00,,,0.00,0,Wunderground v.1.15,2015-05-22 07:56:00,
2015-05-22 04:01:00,56.9,46.4,29.19,North,32767,0.0,0.0,68,0.00,,,0.00,0,Wunderground v.1.15,2015-05-22 08:01:00,
2015-05-22 04:13:00,56.6,46.2,29.20,North,32767,0.0,0.0,68,0.00,,,0.00,0,Wunderground v.1.15,2015-05-22 08:13:00,
2015-05-22 04:18:00,56.3,45.9,29.19,North,32767,0.0,0.0,68,0.00,,,0.00,0,Wunderground v.1.15,2015-05-22 08:18:00,
2015-05-22 04:23:00,56.1,46.1,29.20,North,32767,0.0,0.0,69,0.00,,,0.00,0,Wunderground v.1.15,2015-05-22 08:23:00,
2015-05-22 04:28:00,56.2,45.8,29.20,North,32767,0.0,0.0,68,0.00,,,0.00,0,Wunderground v.1.15,2015-05-22 08:28:00,
2015-05-22 04:33:00,56.1,45.7,29.20,North,32767,0.0,0.0,68,0.00,,,0.00,0,Wunderground v.1.15,2015-05-22 08:33:00,
2015-05-22 04:39:00,56.1,45.3,29.21,North,32767,0.0,0.0,67,0.00,,,0.00,0,Wunderground v.1.15,2015-05-22 08:39:00,
2015-05-22 04:44:00,56.1,45.3,29.20,North,32767,0.0,0.0,67,0.00,,,0.00,0,Wunderground v.1.15,2015-05-22 08:44:00,
2015-05-22 04:49:00,55.9,45.1,29.21,North,32767,0.0,0.0,67,0.00,,,0.00,0,Wunderground v.1.15,2015-05-22 08:49:00,
2015-05-22 04:54:00,55.9,45.1,29.21,North,32767,0.0,0.0,67,0.00,,,0.00,0,Wunderground v.1.15,2015-05-22 08:54:00,
2015-05-22 04:59:00,55.7,44.9,29.21,North,32767,0.0,0.0,67,0.00,,,0.00,0,Wunderground v.1.15,2015-05-22 08:59:00,
2015-05-22 05:05:00,55.5,45.1,29.21,North,32767,0.0,0.0,68,0.00,,,0.00,0,Wunderground v.1.15,2015-05-22 09:05:00,
2015-05-22 05:10:00,55.3,44.9,29.22,North,32767,0.0,0.0,68,0.00,,,0.00,0,Wunderground v.1.15,2015-05-22 09:10:00,
2015-05-22 05:15:00,55.3,44.9,29.22,North,32767,0.0,0.0,68,0.00,,,0.00,0,Wunderground v.1.15,2015-05-22 09:15:00,
2015-05-22 05:20:00,55.0,44.6,29.22,North,32767,0.0,0.0,68,0.00,,,0.00,0,Wunderground v.1.15,2015-05-22 09:20:00,
2015-05-22 05:25:00,55.0,44.6,29.23,North,32767,0.0,0.0,68,0.00,,,0.00,0,Wunderground v.1.15,2015-05-22 09:25:00,
2015-05-22 05:30:00,54.9,44.9,29.22,North,32767,0.0,0.0,69,0.00,,,0.00,0,Wunderground v.1.15,2015-05-22 09:30:00,
2015-05-22 05:36:00,54.6,44.6,29.23,North,32767,0.0,0.0,69,0.00,,,0.00,0,Wunderground v.1.15,2015-05-22 09:36:00,
2015-05-22 05:41:00,54.4,44.8,29.23,North,32767,0.0,0.0,70,0.00,,,0.00,0,Wunderground v.1.15,2015-05-22 09:41:00,
2015-05-22 05:48:00,54.2,44.6,29.23,North,32767,0.0,0.0,70,0.00,,,0.00,0,Wunderground v.1.15,2015-05-22 09:48:00,
2015-05-22 05:53:00,54.1,44.5,29.23,North,32767,0.0,0.0,70,0.00,,,0.00,0,Wunderground v.1.15,2015-05-22 09:53:00,
2015-05-22 05:58:00,54.0,44.8,29.24,North,32767,0.0,0.0,71,0.00,,,0.00,0,Wunderground v.1.15,2015-05-22 09:58:00,
2015-05-22 06:03:00,53.9,44.7,29.24,North,32767,0.0,0.0,71,0.00,,,0.00,0,Wunderground v.1.15,2015-05-22 10:03:00,
2015-05-22 06:09:00,53.8,44.6,29.24,North,32767,0.0,0.0,71,0.00,,,0.00,0,Wunderground v.1.15,2015-05-22 10:09:00,
2015-05-22 06:14:00,53.7,44.5,29.24,North,32767,0.0,0.0,71,0.00,,,0.00,5,Wunderground v.1.15,2015-05-22 10:14:00,
2015-05-22 06:19:00,53.7,44.5,29.25,North,32767,0.0,0.0,71,0.00,,,0.00,9,Wunderground v.1.15,2015-05-22 10:19:00,
2015-05-22 06:24:00,53.4,44.2,29.26,North,32767,0.0,0.0,71,0.00,,,0.00,12,Wunderground v.1.15,2015-05-22 10:24:00,
2015-05-22 06:30:00,53.3,44.5,29.26,North,32767,0.0,0.0,72,0.00,,,0.00,16,Wunderground v.1.15,2015-05-22 10:30:00,
2015-05-22 06:35:00,53.3,44.5,29.26,North,32767,0.0,0.0,72,0.00,,,0.00,18,Wunderground v.1.15,2015-05-22 10:35:00,
2015-05-22 06:40:00,53.2,44.8,29.25,North,32767,0.0,0.0,73,0.00,,,0.00,21,Wunderground v.1.15,2015-05-22 10:40:00,
2015-05-22 06:46:00,53.1,44.7,29.27,North,32767,0.0,0.0,73,0.00,,,0.00,23,Wunderground v.1.15,2015-05-22 10:46:00,
2015-05-22 06:51:00,53.0,44.6,29.27,North,32767,0.0,0.0,73,0.00,,,0.00,26,Wunderground v.1.15,2015-05-22 10:51:00,
2015-05-22 06:56:00,53.0,44.6,29.28,North,32767,0.0,0.0,73,0.00,,,0.00,28,Wunderground v.1.15,2015-05-22 10:56:00,
2015-05-22 07:02:00,52.9,44.8,29.27,North,32767,0.0,0.0,74,0.00,,,0.00,30,Wunderground v.1.15,2015-05-22 11:02:00,
2015-05-22 07:07:00,53.0,44.9,29.28,North,32767,0.0,0.0,74,0.00,,,0.00,33,Wunderground v.1.15,2015-05-22 11:07:00,
2015-05-22 07:12:00,53.0,44.9,29.29,North,32767,0.0,0.0,74,0.00,,,0.00,37,Wunderground v.1.15,2015-05-22 11:12:00,
2015-05-22 07:18:00,53.1,45.0,29.29,North,32767,0.0,0.0,74,0.00,,,0.00,37,Wunderground v.1.15,2015-05-22 11:18:00,
2015-05-22 07:23:00,53.3,45.2,29.28,North,32767,0.0,0.0,74,0.00,,,0.00,62,Wunderground v.1.15,2015-05-22 11:23:00,
2015-05-22 07:28:00,53.6,45.5,29.29,North,32767,0.0,0.0,74,0.00,,,0.00,223,Wunderground v.1.15,2015-05-22 11:28:00,
2015-05-22 07:34:00,53.9,45.8,29.29,North,32767,0.0,0.0,74,0.00,,,0.00,246,Wunderground v.1.15,2015-05-22 11:34:00,
2015-05-22 07:40:00,54.4,45.9,29.30,North,32767,0.0,0.0,73,0.00,,,0.00,267,Wunderground v.1.15,2015-05-22 11:40:00,
2015-05-22 07:46:00,54.7,45.8,29.29,North,32767,0.0,0.0,72,0.00,,,0.00,287,Wunderground v.1.15,2015-05-22 11:46:00,
2015-05-22 07:51:00,55.0,46.1,29.30,North,32767,0.0,0.0,72,0.00,,,0.00,308,Wunderground v.1.15,2015-05-22 11:51:00,
2015-05-22 07:56:00,55.3,46.1,29.30,North,32767,0.0,0.0,71,0.00,,,0.00,325,Wunderground v.1.15,2015-05-22 11:56:00,
2015-05-22 08:02:00,55.5,45.9,29.30,North,32767,0.0,0.0,70,0.00,,,0.00,345,Wunderground v.1.15,2015-05-22 12:02:00,
2015-05-22 08:07:00,55.9,45.9,29.31,North,32767,0.0,0.0,69,0.00,,,0.00,362,Wunderground v.1.15,2015-05-22 12:07:00,
2015-05-22 08:13:00,56.3,45.5,29.31,North,32767,0.0,0.0,67,0.00,,,0.00,383,Wunderground v.1.15,2015-05-22 12:13:00,
2015-05-22 08:19:00,56.6,45.4,29.31,North,32767,0.0,0.0,66,0.00,,,0.00,408,Wunderground v.1.15,2015-05-22 12:19:00,
2015-05-22 08:24:00,57.0,45.3,29.30,North,32767,0.0,0.0,65,0.00,,,0.00,427,Wunderground v.1.15,2015-05-22 12:24:00,
2015-05-22 08:29:00,57.1,44.6,29.31,North,32767,0.0,0.0,63,0.00,,,0.00,443,Wunderground v.1.15,2015-05-22 12:29:00,
2015-05-22 08:34:00,57.4,44.9,29.31,North,32767,0.0,0.0,63,0.00,,,0.00,464,Wunderground v.1.15,2015-05-22 12:34:00,
2015-05-22 08:40:00,57.6,44.7,29.31,North,32767,0.0,0.0,62,0.00,,,0.00,485,Wunderground v.1.15,2015-05-22 12:40:00,
2015-05-22 08:45:00,57.9,44.5,29.32,North,32767,0.0,0.0,61,0.00,,,0.00,499,Wunderground v.1.15,2015-05-22 12:45:00,
2015-05-22 08:51:00,58.1,44.3,29.32,North,32767,0.0,0.0,60,0.00,,,0.00,522,Wunderground v.1.15,2015-05-22 12:51:00,
2015-05-22 08:56:00,58.1,44.7,29.32,North,32767,0.0,0.0,61,0.00,,,0.00,540,Wunderground v.1.15,2015-05-22 12:56:00,
2015-05-22 09:01:00,58.2,44.8,29.32,North,32767,0.0,0.0,61,0.00,,,0.00,557,Wunderground v.1.15,2015-05-22 13:01:00,
2015-05-22 09:07:00,58.7,45.3,29.32,North,32767,0.0,0.0,61,0.00,,,0.00,578,Wunderground v.1.15,2015-05-22 13:07:00,
2015-05-22 09:12:00,59.1,45.2,29.33,North,32767,0.0,0.0,60,0.00,,,0.00,592,Wunderground v.1.15,2015-05-22 13:12:00,
2015-05-22 09:17:00,59.2,44.4,29.33,North,32767,0.0,0.0,58,0.00,,,0.00,605,Wunderground v.1.15,2015-05-22 13:17:00,
2015-05-22 09:23:00,59.5,44.2,29.33,North,32767,0.0,0.0,57,0.00,,,0.00,628,Wunderground v.1.15,2015-05-22 13:23:00,
2015-05-22 09:28:00,59.2,43.5,29.32,North,32767,0.0,0.0,56,0.00,,,0.00,645,Wunderground v.1.15,2015-05-22 13:28:00,
2015-05-22 09:34:00,59.3,43.6,29.33,North,32767,0.0,0.0,56,0.00,,,0.00,656,Wunderground v.1.15,2015-05-22 13:34:00,
2015-05-22 09:40:00,59.7,44.0,29.33,North,32767,0.0,0.0,56,0.00,,,0.00,679,Wunderground v.1.15,2015-05-22 13:40:00,
2015-05-22 09:45:00,60.0,43.8,29.33,North,32767,0.0,0.0,55,0.00,,,0.00,693,Wunderground v.1.15,2015-05-22 13:45:00,
2015-05-22 09:50:00,60.2,43.5,29.33,North,32767,0.0,0.0,54,0.00,,,0.00,708,Wunderground v.1.15,2015-05-22 13:50:00,
2015-05-22 09:55:00,60.4,43.2,29.33,North,32767,0.0,0.0,53,0.00,,,0.00,722,Wunderground v.1.15,2015-05-22 13:55:00,
2015-05-22 10:00:00,60.6,43.4,29.34,North,32767,0.0,0.0,53,0.00,,,0.00,737,Wunderground v.1.15,2015-05-22 14:00:00,
2015-05-22 10:06:00,61.0,43.2,29.34,North,32767,0.0,0.0,52,0.00,,,0.00,754,Wunderground v.1.15,2015-05-22 14:06:00,
2015-05-22 10:11:00,61.5,43.7,29.33,North,32767,0.0,0.0,52,0.00,,,0.00,766,Wunderground v.1.15,2015-05-22 14:11:00,
2015-05-22 10:16:00,62.0,43.7,29.34,North,32767,0.0,0.0,51,0.00,,,0.00,780,Wunderground v.1.15,2015-05-22 14:16:00,
2015-05-22 10:22:00,62.1,43.7,29.35,North,32767,0.0,0.0,51,0.00,,,0.00,795,Wunderground v.1.15,2015-05-22 14:22:00,
2015-05-22 10:27:00,62.2,42.8,29.35,North,32767,0.0,0.0,49,0.00,,,0.00,810,Wunderground v.1.15,2015-05-22 14:27:00,
2015-05-22 10:32:00,62.0,43.1,29.33,North,32767,0.0,0.0,50,0.00,,,0.00,817,Wunderground v.1.15,2015-05-22 14:32:00,
2015-05-22 10:37:00,62.5,43.1,29.34,North,32767,0.0,0.0,49,0.00,,,0.00,830,Wunderground v.1.15,2015-05-22 14:37:00,
2015-05-22 10:42:00,63.1,42.5,29.35,North,32767,0.0,0.0,47,0.00,,,0.00,840,Wunderground v.1.15,2015-05-22 14:42:00,
2015-05-22 10:53:00,63.1,42.5,29.35,North,32767,0.0,0.0,47,0.00,,,0.00,870,Wunderground v.1.15,2015-05-22 14:53:00,
2015-05-22 10:58:00,63.7,43.1,29.33,North,32767,0.0,0.0,47,0.00,,,0.00,875,Wunderground v.1.15,2015-05-22 14:58:00,
2015-05-22 11:04:00,63.7,43.1,29.34,North,32767,0.0,0.0,47,0.00,,,0.00,889,Wunderground v.1.15,2015-05-22 15:04:00,
2015-05-22 11:10:00,64.1,43.4,29.34,North,32767,0.0,0.0,47,0.00,,,0.00,900,Wunderground v.1.15,2015-05-22 15:10:00,